Location: Concrete Bridge Crossing
(40.5373°N, 78.8672°W)
Time: 07:24:56
(UTC+00:00)

Hubble Space Telescope - Visible Passes

Search period start: 26 November 2020 00:00
Search period end: 06 December 2020 00:00
Orbit: 536 x 540 km, 28.5° (Epoch: 25 November)

Date Brightness Start Highest point End Pass type
(mag) Time Alt. Az. Time Alt. Az. Time Alt. Az.
04 Dec 3.5 00:27:23 10° SSW 00:28:05 12° SSW 00:28:05 12° SSW visible
04 Dec 3.4 22:37:25 10° S 22:38:27 11° SSE 22:39:28 10° SSE visible
05 Dec 3.3 00:16:26 10° SW 00:17:56 14° SSW 00:17:56 14° SSW visible
05 Dec 3.3 22:25:52 10° SSW 22:27:31 12° SSE 22:29:10 10° SE visible
